Location: Buchdorf
(48.7842°N, 10.8275°E)
Time: 14:08:58
(UTC+00:00)

X-37B - Pass Details

Date: 11 March 2021
Orbit: 380 x 394 km, 45.0° (Epoch: 07 April)

Event Time Altitude Azimuth Distance (km) Brightness Sun altitude
Rises 19:15:51 0° 223° (SW) 2,268 4.8 -20.3°
Reaches altitude 10° 19:18:15 10° 206° (SSW) 1,418 3.5 -20.6°
Enters shadow 19:18:24 11° 204° (SSW) 1,373 3.4 -20.7°
